Weather History for Lancaster, SC

Change the Weather History Date:

Sunday, February 17, 2013

  Actual Average (KUZA) Record (KUZA)
Temperature  
Mean Temperature 30 °F -  
Max Temperature 41 °F 56 °F 76 °F (1976)
Min Temperature 19 °F 35 °F 6 °F (1958)
Degree Days  
Heating Degree Days 35    
Moisture  
Dew Point 22 °F    
Average Humidity 78    
Maximum Humidity 100    
Minimum Humidity 36    
Precipitation  
Precipitation 0.01 in - - ()
Sea Level Pressure  
Sea Level Pressure 30.16 in    
Wind  
Wind Speed 2 mph (West)    
Max Wind Speed 12 mph    
Max Gust Speed 17 mph    
Visibility 10 miles    
Events Rain    
Averages and records for this station are not official NWS values.
T = Trace of Precipitation, MM = Missing Value Source: NWS Daily Summary

Daily Weather History Graph

Daily Weather History Graph

Search for Another Location

Airport:

Trip Planner

Search our weather history database for the weather conditions in past years. The results will help you decide how hot, cold, wet, or windy it might be!

Date:

Astronomy

Feb. 17, 2013 Rise Set
Actual Time 7:06 AM EST 6:08 PM EST
Civil Twilight 6:40 AM EST 6:34 PM EST
Nautical Twilight 6:11 AM EST 7:03 PM EST
Astronomical Twilight 5:42 AM EST 7:33 PM EST
Moon 11:17 AM EST (2/17) 12:44 AM EST (2/17)
Length of Visible Light 11h 53m
Length of Day
11h 02m
Waxing Crescent, 49% of the Moon is Illuminated
Feb 17
Waxing Crescent
Feb 17
First Quarter
Feb 25
Full
Mar 4
Last Quarter
Mar 11
New

Hourly Weather History & Observations

Time (EST) Temp. Windchill Dew Point Humidity Pressure Visibility Wind Dir Wind Speed Gust Speed Precip Events Conditions
12:15 AM 26.6 °F - 26.6 °F 100% 30.02 in 10.0 mi Calm Calm - N/A   Clear
12:35 AM 26.6 °F - 26.6 °F 100% 30.02 in 10.0 mi Calm Calm - N/A   Clear
12:55 AM 26.6 °F - 24.8 °F 93% 30.03 in 10.0 mi Calm Calm - N/A   Clear
1:15 AM 26.6 °F - 24.8 °F 93% 30.04 in 10.0 mi Calm Calm - N/A   Clear
1:35 AM 26.6 °F - 24.8 °F 93% 30.04 in 10.0 mi Calm Calm - N/A   Clear
2:15 AM 24.8 °F - 23.0 °F 93% 30.05 in 10.0 mi Calm Calm - N/A   Clear
2:35 AM 24.8 °F - 23.0 °F 93% 30.05 in 10.0 mi Calm Calm - N/A   Clear
3:15 AM 23.0 °F - 23.0 °F 100% 30.06 in 10.0 mi Calm Calm - N/A Rain Light Freezing Rain
3:35 AM 23.0 °F - 23.0 °F 100% 30.06 in 10.0 mi Calm Calm - N/A Rain Light Freezing Rain
3:55 AM 23.0 °F - 21.2 °F 93% 30.06 in 10.0 mi Calm Calm - N/A Rain Light Freezing Rain
4:15 AM 23.0 °F - 19.4 °F 86% 30.07 in 10.0 mi Calm Calm - N/A Rain Light Freezing Rain
4:35 AM 23.0 °F - 19.4 °F 86% 30.07 in 10.0 mi Calm Calm - N/A Rain Light Freezing Rain
5:15 AM 23.0 °F - 17.6 °F 80% 30.09 in 10.0 mi Calm Calm - N/A Rain Light Freezing Rain
5:35 AM 21.2 °F - 19.4 °F 93% 30.10 in 10.0 mi Calm Calm - N/A Rain Light Freezing Rain
5:55 AM 23.0 °F - 17.6 °F 80% 30.11 in 10.0 mi Calm Calm - N/A Rain Light Freezing Rain
6:15 AM 23.0 °F - 17.6 °F 80% 30.11 in 10.0 mi Calm Calm - N/A Rain Light Freezing Rain
6:35 AM 23.0 °F - 17.6 °F 80% 30.12 in 10.0 mi Calm Calm - N/A Rain Light Freezing Rain
6:55 AM 19.4 °F - 15.8 °F 86% 30.13 in 10.0 mi Calm Calm - N/A Rain Light Freezing Rain
7:15 AM 21.2 °F - 17.6 °F 86% 30.14 in 10.0 mi Calm Calm - N/A Rain Light Freezing Rain
7:35 AM 21.2 °F - 17.6 °F 86% 30.14 in 10.0 mi Calm Calm - N/A Rain Light Freezing Rain
7:55 AM 21.2 °F - 17.6 °F 86% 30.15 in 10.0 mi Calm Calm - N/A Rain Light Freezing Rain
8:15 AM 23.0 °F - 17.6 °F 80% 30.16 in 10.0 mi Calm Calm - N/A Rain Light Freezing Rain
8:55 AM 24.8 °F - 19.4 °F 80% 30.18 in 10.0 mi Calm Calm - N/A Rain Light Freezing Rain
9:15 AM 26.6 °F - 21.2 °F 80% 30.18 in 10.0 mi Calm Calm - N/A Rain Light Freezing Rain
9:35 AM 28.4 °F - 19.4 °F 69% 30.19 in 10.0 mi Calm Calm - N/A Rain Light Freezing Rain
9:55 AM 28.4 °F - 21.2 °F 74% 30.19 in 10.0 mi Calm Calm - N/A   Clear
10:15 AM 28.4 °F 22.2 °F 19.4 °F 69% 30.19 in 10.0 mi West 5.8 mph - N/A   Clear
10:35 AM 30.2 °F 23.4 °F 21.2 °F 69% 30.19 in 10.0 mi WNW 6.9 mph - N/A   Clear
10:55 AM 32.0 °F 23.6 °F 21.2 °F 64% 30.20 in 10.0 mi West 10.4 mph - N/A   Clear
11:15 AM 32.0 °F 24.2 °F 21.2 °F 64% 30.20 in 10.0 mi WNW 9.2 mph - N/A   Clear
11:35 AM 32.0 °F 23.6 °F 21.2 °F 64% 30.20 in 10.0 mi WNW 10.4 mph - N/A   Clear
11:55 AM 32.0 °F 23.0 °F 21.2 °F 64% 30.21 in 10.0 mi West 11.5 mph 17.3 mph N/A   Clear
12:15 PM 32.0 °F 24.2 °F 23.0 °F 69% 30.20 in 10.0 mi West 9.2 mph - N/A   Clear
12:35 PM 32.0 °F 25.6 °F 23.0 °F 69% 30.19 in 10.0 mi WSW 6.9 mph - N/A   Partly Cloudy
12:55 PM 33.8 °F 25.3 °F 23.0 °F 65% 30.19 in 10.0 mi WSW 11.5 mph - N/A   Partly Cloudy
1:15 PM 33.8 °F 27.7 °F 23.0 °F 65% 30.19 in 10.0 mi West 6.9 mph - N/A   Partly Cloudy
2:15 PM 35.6 °F 31.7 °F 24.8 °F 65% 30.17 in 10.0 mi SW 4.6 mph - N/A   Partly Cloudy
2:35 PM 37.4 °F 32.1 °F 21.2 °F 52% 30.17 in 10.0 mi SW 6.9 mph - N/A   Partly Cloudy
2:55 PM 37.4 °F 30.8 °F 23.0 °F 56% 30.17 in 10.0 mi West 9.2 mph - 0.01 in   Clear
3:15 PM 37.4 °F 32.1 °F 21.2 °F 52% 30.17 in 10.0 mi West 6.9 mph - N/A   Clear
3:35 PM 39.2 °F 35.0 °F 21.2 °F 49% 30.17 in 10.0 mi West 5.8 mph - N/A   Clear
4:15 PM 41.0 °F 36.4 °F 17.6 °F 39% 30.16 in 10.0 mi WSW 6.9 mph - N/A   Clear
4:35 PM 41.0 °F 35.8 °F 17.6 °F 39% 30.16 in 10.0 mi West 8.1 mph - N/A   Clear
4:55 PM 41.0 °F 36.4 °F 15.8 °F 36% 30.16 in 10.0 mi West 6.9 mph - N/A   Clear
5:15 PM 41.0 °F 36.4 °F 15.8 °F 36% 30.17 in 10.0 mi West 6.9 mph - N/A   Clear
5:35 PM 41.0 °F 38.0 °F 17.6 °F 39% 30.17 in 10.0 mi WSW 4.6 mph - N/A   Clear
5:55 PM 39.2 °F 35.9 °F 17.6 °F 42% 30.17 in 10.0 mi West 4.6 mph - N/A   Clear
6:15 PM 35.6 °F - 23.0 °F 60% 30.18 in 10.0 mi Calm Calm - N/A   Clear
6:35 PM 32.0 °F - 24.8 °F 75% 30.19 in 10.0 mi Calm Calm - N/A   Clear
6:55 PM 32.0 °F - 26.6 °F 80% 30.20 in 10.0 mi Calm Calm - N/A   Clear
7:15 PM 28.4 °F - 26.6 °F 93% 30.21 in 10.0 mi Calm Calm - N/A   Clear
7:35 PM 28.4 °F - 26.6 °F 93% 30.22 in 10.0 mi Calm Calm - N/A   Clear
8:15 PM 28.4 °F - 26.6 °F 93% 30.23 in 10.0 mi Calm Calm - N/A   Clear
8:35 PM 30.2 °F - 23.0 °F 75% 30.23 in 10.0 mi Calm Calm - N/A   Clear
8:55 PM 26.6 °F - 24.8 °F 93% 30.24 in 10.0 mi Calm Calm - N/A   Clear
9:15 PM 26.6 °F - 26.6 °F 100% 30.24 in 10.0 mi Calm Calm - N/A   Clear
9:35 PM 26.6 °F - 24.8 °F 93% 30.25 in 10.0 mi Calm Calm - N/A   Clear
9:55 PM 26.6 °F - 24.8 °F 93% 30.25 in 10.0 mi Calm Calm - N/A   Clear
10:15 PM 24.8 °F - 24.8 °F 100% 30.26 in 10.0 mi Calm Calm - N/A   Clear
10:35 PM 24.8 °F - 24.8 °F 100% 30.27 in 10.0 mi Calm Calm - N/A Rain Light Freezing Rain
10:55 PM 24.8 °F - 24.8 °F 100% 30.27 in 10.0 mi Calm Calm - N/A Rain Light Freezing Rain
11:15 PM 24.8 °F - 24.8 °F 100% 30.28 in 10.0 mi Calm Calm - N/A Rain Light Freezing Rain
11:35 PM 24.8 °F - 24.8 °F 100% 30.28 in 10.0 mi Calm Calm - N/A Rain Light Freezing Rain